Powrót do katalogu

COSMOS 372

AktywnyMilitariaLEO
NORAD 4588·PAYLOAD·🇷🇺 Russia

Wystrzelony Oct 16, 1970 z Plesetsk Cosmodrome

Loading…

Następne Przeloty (najbliższe 24 godziny)

TLE

ŚwieżeSource: Space-Track

Epoka: Sep 14, 2026, 14:18 UTC

1 04588U 70086A   26257.59645449  .00000069  00000-0  32156-4 0  9990
2 04588  74.0550  50.2519 0012808 157.5075 249.0215 14.36966862925762

Śledź COSMOS 372 w czasie rzeczywistym z AllMySat

Download on the App Store